Content
SEND FEEDBACK

Daily
Averages
Monthly
Summary
United States of America

LAKE AVALON, NEW MEXICO


Home > North America > United States > New Mexico
Elevation: 3240 feet     Latitude: 32 29N     Longitude: 104 15W

WEATHER
 
SELECT A DAY
Number of Records: 183,427;   Date Range: 1/1/95 - 12/16/14
 
SHARE

PRINT THIS DATA

[ ← Previous Day ]
WEATHER ALMANAC - FEBRUARY 13, 2013
[ Next Day → ]
[ °C ]   °F
Weather ElementAverageHighLow
Temperature44.5 °F61 °F (3:53 pm)21.9 °F (5:53 am)
Dewpoint9 °F19 °F (9:53 am)1.9 °F (12:53 pm)
Humidity30.4 %68 % (4:53 am)10 % (12:53 pm)
Barometer30.01 in30.11 in (7:53 am)29.90 in (3:53 pm)
Wind Speed8 mph20.7 mph (9:53 pm)
Wind Gust26.5 mph (6:53 pm)
Weather ElementAverage
Visibility10 mi
Wind DirectionS (179.1 °)

Weather ElementTotal
Precipitation---
Heating Degree Days23.6 (Base 65)
Averaged from 23 records on February 13, 2013
WEATHER CONDITIONS BREAKOUT
WIND DIRECTION BREAKOUT
WEATHER BY HOUR - FEBRUARY 13, 2013
[ °C ]   °F
Local TimeTemperatureDewpointHumidityBarometerVisibilityWind DirectionWind SpeedGust SpeedPrecipitationEventsConditions
1:53 AM28.9 °F14.0 °F54 %30.10 in10.0 miVariable4.6 mphClear
2:53 AM28.0 °F12.9 °F53 %30.09 in10.0 miCalmClear
3:53 AM26.1 °F12.9 °F58 %30.08 in10.0 miCalmClear
4:53 AM23.0 °F14.0 °F68 %30.09 in10.0 miSSW (200°)5.8 mphClear
5:53 AM21.9 °F12.9 °F68 %30.10 in10.0 miWest (260°)5.8 mphClear
6:53 AM26.1 °F15.1 °F63 %30.10 in10.0 miSSE (150°)3.5 mphClear
7:53 AM32.0 °F17.1 °F54 %30.11 in10.0 miSSW (200°)3.5 mphClear
8:53 AM37.9 °F15.1 °F39 %30.11 in10.0 miCalmClear
9:53 AM44.1 °F19.0 °F37 %30.10 in10.0 miCalmClear
10:53 AM52.0 °F15.1 °F23 %30.05 in10.0 miSSE (160°)4.6 mphClear
11:53 AM57.0 °F3.9 °F12 %30.01 in10.0 miWest (260°)9.2 mphClear
12:53 PM59.0 °F1.9 °F10 %29.96 in10.0 miWSW (250°)16.1 mphClear
1:53 PM60.1 °F3.9 °F11 %29.93 in10.0 miWest (260°)15.0 mph24.2 mphClear
2:53 PM60.1 °F3.9 °F11 %29.92 in10.0 miWest (270°)15.0 mph23.0 mphClear
3:53 PM61.0 °F3.9 °F10 %29.90 in10.0 miWSW (250°)13.8 mphClear
4:53 PM60.1 °F3.0 °F10 %29.90 in10.0 miWSW (250°)9.2 mphClear
5:53 PM51.1 °F3.9 °F15 %29.93 in10.0 miSSW (210°)6.9 mphClear
6:53 PM54.0 °F5.0 °F14 %29.95 in10.0 miWSW (240°)16.1 mph26.5 mphClear
7:53 PM48.0 °F6.1 °F18 %29.95 in10.0 miSSW (200°)5.8 mphClear
8:53 PM50.0 °F6.1 °F17 %29.94 in10.0 miWSW (240°)13.8 mphClear
9:53 PM50.0 °F6.1 °F17 %29.93 in10.0 miWSW (250°)20.7 mph26.5 mphClear
10:53 PM45.0 °F6.1 °F20 %29.94 in10.0 miSSW (200°)5.8 mphClear
11:53 PM48.0 °F6.1 °F18 %29.93 in10.0 miWest (270°)9.2 mphClear
Hourly data recorded from KCNM, located miles away from Lake Avalon, New Mexico







STORIES FROM OUR PARTNERS